Location: Asheville, NC
(35.6000°N, 82.5500°W)
Time: 18:59:22

Vanguard 1 Rocket - Pass Details

Date: 12 March 2018
Orbit: 655 x 4222 km, 34.3° (Epoch: 20 March)

Event Time Altitude Azimuth Distance (km) Brightness Sun altitude
Rises 02:00:53 0° 285° (WNW) 6,422 11.8 -57.4°
Reaches altitude 10° 02:04:42 10° 280° (W) 5,802 11.4 -57.2°
Enters shadow 02:07:25 18° 276° (W) 5,424 11.2 -57.1°
Maximum altitude 02:23:17 48° 214° (SW) 4,695 - -56.2°
Exits shadow 02:46:57 11° 149° (SSE) 7,176 11.7 -54.2°
Drops below altitude 10° 02:47:23 10° 148° (SSE) 7,236 11.7 -54.2°
Sets 02:53:01 0° 143° (SE) 8,028 12.1 -53.6°
